Regional Weather Roundup
Issued by NWS Green Bay, WI

Home | Current Version | Previous Version | Text Only | Print | Product List | Glossary On
Versions: 1 2 3 4 5 6 7 8 9 10 11 12 13 14 15 16 17 18 19 20 21 22 23 24 25 26 27 28 29 30 31 32 33 34 35 36 37 38 39 40 41 42 43 44 45 46 47 48 49 50
000
ASUS43 KGRB 010810
RWRGRB

NORTH-CENTRAL AND NORTHEAST WISCONSIN REGIONAL WEATHER ROUNDUP
NATIONAL WEATHER SERVICE GREEN BAY WI
300 AM CDT MON SEP 01 2014

WIZ005-009-010>012-018-019-010900-
NORTH CENTRAL WISCONSIN

CITY           SKY/WX    TMP DP  RH WIND       PRES   REMARKS
IRONWOOD       NOT AVBL
MANITOWISH WTR CLOUDY    65  65 100 E5        29.65F
ARBOR VITAE    CLOUDY    66  63  91 SE7       29.66F
EAGLE RIVER    CLOUDY    64  64 100 SE3       29.69F
LAND O LAKES   CLOUDY    65  64  96 SE3       29.70F
RHINELANDER    CLOUDY    66  65  96 SE7       29.69F
PHILLIPS       CLOUDY    64  64  98 E5        29.62F
ANTIGO         CLOUDY    66  65  99 SE13      29.72F FOG
TOMAHAWK       CLOUDY    67  65  95 SE6       29.67F
MERRILL        CLOUDY    69  67  94 S9        29.68F
$$

WIZ013-073-010900-
NORTHEAST WISCONSIN

CITY           SKY/WX    TMP DP  RH WIND       PRES   REMARKS
IRON MOUNTAIN  CLOUDY    66  64  93 SE9       29.72F FOG
MARINETTE      MOCLDY    70  64  83 S8        29.73F
OCONTO         CLOUDY    70  69  97 S7        29.73F
$$

WIZ017-030-035>037-045-010900-
CENTRAL WISCONSIN

CITY           SKY/WX    TMP DP  RH WIND       PRES   REMARKS
MEDFORD        LGT RAIN  67  61  81 SW15G24   29.67S
WAUSAU         CLOUDY    71  66  84 S13       29.68F
MOSINEE        CLOUDY    68  63  83 S13       29.71F
MARSHFIELD     LGT RAIN  69  59  70 SW8       29.70F
WISC RAPIDS    CLOUDY    72  58  61 S10       29.71F
STEVENS POINT  CLOUDY    71  58  65 S12G17    29.72F
WAUPACA        CLOUDY    74  71  89 S8        29.74F
SHAWANO        CLOUDY    71  68  90 S6        29.74S
CLINTONVILLE   CLOUDY    70  68  94 S7        29.73F
$$

WIZ038-039-048-051-010900-
FOX VALLEY

CITY           SKY/WX    TMP DP  RH WIND       PRES   REMARKS
NWS GREEN BAY  CLOUDY    70  68  93 S8        29.75F
APPLETON       CLOUDY    72  70  94 S15       29.77R
OSHKOSH        CLOUDY    72  69  90 S12       29.76F
FOND DU LAC    CLOUDY    74  68  81 S14       29.78S
$$

WIZ022-050-052-010900-
EAST CENTRAL WISCONSIN

CITY           SKY/WX    TMP DP  RH WIND       PRES   REMARKS
STURGEON BAY   MOCLDY    68  64  88 S13       29.77F
MANITOWOC      CLOUDY    68  67  96 S7        29.78F FOG
SHEBOYGAN      MOCLDY    68  66  93 S9        29.79F
$$

LMZ563-521-522-541>543-010900-
LAKESHORE

STATION/POSITION TIME  TEMP    WIND        PRES    VSBY  WAVE
                       AIR SEA DIR/SP/G                  HT/PER
                 (UTC) (F)     (DEG/KT/KT) (MB)    (MI)  (FT/S)
SHEBOYGAN LKSHOR 0800   70 52  180/ 15/ 16 1008.6F
KEWAUNEE LKSHORE 0800   60     180/  8/  9 1007.4F
NORTHPORT PIER   0800   66     150/  8/ 12 1008.1F
N MID LAKE BUOY  0800   67 65  180/ 12/ 14 1008.5F         1/ 3
S GREEN BAY BUOY 0800   72     VRB 16/ 17  1008.0F
CHAMBERS ISLAND  0800   70     130/  4/ 12 1007.8S
MENOMINEE LKSHOR 0800   70     160/ 13/ 17 1007.7F
$$


USA.gov is the U.S. government's official web portal to all federal, state and local government web resources and services.